| time (UTC) | temp C | wind direction | speed KPH | gust KPH | rain 1hr cm | rain 24hr cm | rain mn cm | humidity % | barometer mb |
| 20260904190057 | 18 | 48 | 1.6 | 9.7 | 0.03 | 0.03 | 0.03 | 100 | 1012.6 |
| 20260904184557 | 18 | 343 | 1.6 | 3.2 | 0.00 | 0.00 | 0.00 | 100 | 1012.7 |
| 20260904183102 | 18 | 70 | 3.2 | 11.3 | 0.00 | 0.00 | 0.00 | 100 | 1012.7 |
| 20260904181600 | 18 | 100 | 6.4 | 14.5 | 0.00 | 0.00 | 0.00 | 100 | 1012.2 |
| 20260904180104 | 19 | 82 | 4.8 | 16.1 | 0.00 | 0.00 | 0.00 | 100 | 1012.1 |
| 20260904174607 | 20 | 71 | 4.8 | 12.9 | 0.00 | 0.00 | 0.00 | 100 | 1011.1 |
| 20260904173117 | 20 | 87 | 4.8 | 12.9 | 0.00 | 0.00 | 0.00 | 100 | 1011.7 |
| 20260904171605 | 20 | 127 | 9.7 | 16.1 | 0.00 | 0.00 | 0.00 | 100 | 1011.9 |
| 20260904170106 | 20 | 39 | 1.6 | 11.3 | 0.00 | 0.00 | 0.00 | 100 | 1012.6 |
| 20260904170002 | 20 | 39 | 3.2 | 11.3 | 0.00 | 0.00 | 0.00 | 100 | 1012.5 |
| 20260904164600 | 20 | 77 | 8.0 | 20.9 | 0.00 | 0.00 | 0.00 | 100 | 1011.9 |
| 20260904163057 | 21 | 134 | 3.2 | 11.3 | 0.00 | 0.00 | 0.00 | 100 | 1012.0 |
| 20260904161601 | 21 | 39 | 3.2 | 12.9 | 0.00 | 0.00 | 0.00 | 100 | 1012.3 |
| 20260904160057 | 21 | 13 | 6.4 | 14.5 | 0.00 | 0.00 | 0.00 | 100 | 1012.4 |
| 20260904160001 | 21 | 25 | 6.4 | 14.5 | 0.00 | 0.00 | 0.00 | 100 | 1012.4 |
| 20260904154557 | 22 | 26 | 6.4 | 25.7 | 0.00 | 0.00 | 0.00 | 100 | 1012.3 |
| 20260904153105 | 21 | 353 | 8.0 | 16.1 | 0.00 | 0.00 | 0.00 | 100 | 1012.2 |
| 20260904151557 | 21 | 359 | 9.7 | 16.1 | 0.00 | 0.00 | 0.00 | 100 | 1012.4 |
| 20260904144613 | 21 | 72 | 8.0 | 14.5 | 0.00 | 0.00 | 0.00 | 100 | 1013.3 |
| 20260904143058 | 21 | 4 | 4.8 | 12.9 | 0.00 | 0.00 | 0.00 | 100 | 1013.2 |
| 20260904141602 | 21 | 32 | 8.0 | 16.1 | 0.00 | 0.00 | 0.00 | 100 | 1013.6 |
| 20260904140057 | 20 | 67 | 4.8 | 12.9 | 0.00 | 0.00 | 0.00 | 100 | 1014.0 |
| 20260904134605 | 19 | 39 | 4.8 | 11.3 | 0.00 | 0.00 | 0.00 | 100 | 1014.1 |
| 20260904133057 | 18 | 353 | 3.2 | 8.0 | 0.00 | 0.00 | 0.00 | 100 | 1014.2 |
| 20260904131558 | 18 | 56 | 3.2 | 11.3 | 0.00 | 0.00 | 0.00 | 100 | 1014.4 |
| 20260904130057 | 17 | 86 | 1.6 | 8.0 | 0.00 | 0.00 | 0.00 | 100 | 1014.4 |
| 20260904124603 | 17 | 13 | 4.8 | 8.0 | 0.00 | 0.00 | 0.00 | 100 | 1014.7 |
| 20260904123057 | 16 | 34 | 4.8 | 8.0 | 0.00 | 0.00 | 0.00 | 100 | 1014.4 |
| 20260904121557 | 16 | 56 | 1.6 | 6.4 | 0.00 | 0.00 | 0.00 | 100 | 1014.8 |
| 20260904120108 | 15 | 1 | 0.0 | 3.2 | 0.00 | 0.00 | 0.00 | 100 | 1014.6 |
| 20260904114557 | 15 | 249 | 0.0 | 3.2 | 0.00 | 0.00 | 0.00 | 100 | 1014.7 |
| 20260904113101 | 15 | 247 | 0.0 | 4.8 | 0.00 | 0.00 | 0.00 | 100 | 1014.5 |
| 20260904111610 | 15 | 259 | 1.6 | 4.8 | 0.00 | 0.00 | 0.00 | 100 | 1014.5 |
| 20260904110059 | 15 | 47 | 1.6 | 3.2 | 0.00 | 0.00 | 0.00 | 100 | 1014.3 |
| 20260904104558 | 14 | 49 | 0.0 | 0.0 | 0.00 | 0.00 | 0.00 | 100 | 1014.0 |
| 20260904103057 | 14 | 47 | 0.0 | 0.0 | 0.00 | 0.00 | 0.00 | 100 | 1014.0 |
| 20260904101600 | 14 | 48 | 0.0 | 0.0 | 0.00 | 0.00 | 0.00 | 100 | 1014.0 |
| 20260904094610 | 13 | 48 | 0.0 | 0.0 | 0.00 | 0.00 | 0.00 | 100 | 1013.6 |
| 20260904093101 | 13 | 48 | 0.0 | 0.0 | 0.00 | 0.00 | 0.00 | 100 | 1013.5 |
| 20260904091558 | 13 | 48 | 0.0 | 0.0 | 0.00 | 0.00 | 0.00 | 100 | 1012.9 |
| 20260904091502 | 13 | 48 | 0.0 | 0.0 | 0.00 | 0.00 | 0.00 | 100 | 1012.9 |
| 20260904090057 | 13 | 48 | 0.0 | 0.0 | 0.00 | 0.00 | 0.00 | 100 | 1012.6 |
| 20260904084557 | 13 | 48 | 0.0 | 0.0 | 0.00 | 0.00 | 0.00 | 100 | 1012.3 |
| 20260904083058 | 13 | 48 | 0.0 | 0.0 | 0.00 | 0.00 | 0.00 | 100 | 1012.0 |
| 20260904081636 | 13 | 48 | 0.0 | 0.0 | 0.00 | 0.00 | 0.00 | 100 | 1011.9 |
| 20260904080057 | 13 | 48 | 0.0 | 0.0 | 0.00 | 0.00 | 0.00 | 100 | 1011.8 |
| 20260904074608 | 13 | 48 | 0.0 | 0.0 | 0.00 | 0.00 | 0.00 | 100 | 1011.6 |
| 20260904073105 | 14 | 48 | 0.0 | 0.0 | 0.00 | 0.00 | 0.00 | 100 | 1011.4 |
| 20260904071559 | 14 | 48 | 0.0 | 0.0 | 0.00 | 0.00 | 0.00 | 100 | 1011.3 |
| 20260904070109 | 14 | 48 | 0.0 | 0.0 | 0.00 | 0.00 | 0.00 | 100 | 1011.4 |
| 20260904064557 | 14 | 48 | 0.0 | 0.0 | 0.00 | 0.00 | 0.00 | 100 | 1011.4 |
| 20260904063100 | 14 | 48 | 0.0 | 0.0 | 0.00 | 0.00 | 0.00 | 100 | 1011.4 |
| 20260904061604 | 14 | 48 | 0.0 | 0.0 | 0.00 | 0.00 | 0.00 | 100 | 1011.4 |
| 20260904060057 | 14 | 48 | 0.0 | 0.0 | 0.00 | 0.00 | 0.00 | 100 | 1011.5 |
| 20260904054557 | 14 | 48 | 0.0 | 1.6 | 0.00 | 0.00 | 0.00 | 100 | 1011.6 |
| 20260904053059 | 14 | 48 | 0.0 | 1.6 | 0.00 | 0.00 | 0.00 | 100 | 1011.6 |
| 20260904051557 | 14 | 48 | 0.0 | 0.0 | 0.00 | 0.00 | 0.00 | 100 | 1011.6 |
| 20260904050057 | 14 | 48 | 0.0 | 1.6 | 0.00 | 0.00 | 0.00 | 100 | 1011.6 |
| 20260904044556 | 15 | 48 | 0.0 | 0.0 | 0.00 | 0.00 | 0.00 | 100 | 1011.8 |
| 20260904043109 | 15 | 48 | 0.0 | 0.0 | 0.00 | 0.00 | 0.00 | 100 | 1011.7 |
| 20260904041559 | 15 | 48 | 0.0 | 1.6 | 0.00 | 0.00 | 0.00 | 100 | 1011.8 |
| 20260904040056 | 15 | 48 | 0.0 | 1.6 | 0.00 | 0.00 | 0.00 | 100 | 1011.9 |
| 20260904034558 | 15 | 48 | 0.0 | 1.6 | 0.00 | 0.00 | 0.00 | 100 | 1011.8 |
| 20260904033058 | 15 | 48 | 0.0 | 0.0 | 0.00 | 0.00 | 0.00 | 100 | 1011.8 |
| 20260904031558 | 15 | 48 | 0.0 | 0.0 | 0.00 | 0.00 | 0.00 | 100 | 1011.8 |
| 20260904030058 | 15 | 48 | 0.0 | 0.0 | 0.00 | 0.00 | 0.00 | 100 | 1011.8 |
| 20260904030003 | 15 | 48 | 0.0 | 0.0 | 0.00 | 0.00 | 0.00 | 100 | 1011.9 |
| 20260904024603 | 15 | 48 | 0.0 | 1.6 | 0.00 | 0.00 | 0.00 | 100 | 1011.8 |
| 20260904023058 | 16 | 48 | 0.0 | 0.0 | 0.00 | 0.00 | 0.00 | 100 | 1011.9 |
| 20260904021601 | 16 | 48 | 0.0 | 0.0 | 0.00 | 0.00 | 0.00 | 100 | 1012.1 |
| 20260904020100 | 16 | 48 | 0.0 | 0.0 | 0.00 | 0.00 | 0.00 | 100 | 1012.2 |
| 20260904014642 | 16 | 48 | 0.0 | 1.6 | 0.00 | 0.00 | 0.00 | 100 | 1012.2 |
| 20260904013100 | 16 | 48 | 0.0 | 1.6 | 0.00 | 0.00 | 0.00 | 100 | 1012.3 |
| 20260904011557 | 16 | 48 | 0.0 | 1.6 | 0.00 | 0.00 | 0.00 | 100 | 1012.3 |
| 20260904010057 | 16 | 48 | 0.0 | 1.6 | 0.00 | 0.00 | 0.00 | 100 | 1012.4 |
| 20260904004602 | 16 | 48 | 0.0 | 0.0 | 0.00 | 0.00 | 0.00 | 100 | 1012.5 |
| 20260904003102 | 17 | 48 | 0.0 | 0.0 | 0.00 | 0.00 | 0.00 | 100 | 1012.3 |
| 20260904001557 | 17 | 48 | 0.0 | 3.2 | 0.00 | 0.00 | 0.00 | 100 | 1012.4 |
| 20260904000139 | 17 | 48 | 0.0 | 3.2 | 0.00 | 0.00 | 0.00 | 100 | 1012.3 |
| 20260903234557 | 17 | 48 | 0.0 | 1.6 | 0.00 | 0.00 | 0.00 | 100 | 1012.4 |
| 20260903233057 | 17 | 48 | 0.0 | 1.6 | 0.00 | 0.00 | 0.00 | 100 | 1012.4 |
| 20260903231613 | 17 | 48 | 0.0 | 3.2 | 0.00 | 0.00 | 0.00 | 100 | 1012.4 |
| 20260903230104 | 18 | 48 | 0.0 | 1.6 | 0.00 | 0.00 | 0.00 | 100 | 1012.1 |
| 20260903224558 | 18 | 48 | 0.0 | 1.6 | 0.00 | 0.00 | 0.00 | 100 | 1012.0 |
| 20260903223057 | 18 | 48 | 0.0 | 0.0 | 0.00 | 0.00 | 0.00 | 100 | 1012.0 |
| 20260903221557 | 18 | 48 | 0.0 | 1.6 | 0.00 | 0.00 | 0.00 | 100 | 1011.7 |
| 20260903220110 | 19 | 48 | 0.0 | 1.6 | 0.00 | 0.00 | 0.00 | 100 | 1011.5 |
| 20260903214602 | 20 | 48 | 0.0 | 1.6 | 0.00 | 0.00 | 0.00 | 100 | 1011.5 |
| 20260903213101 | 20 | 48 | 0.0 | 1.6 | 0.00 | 0.00 | 0.00 | 100 | 1011.4 |
| 20260903211557 | 21 | 48 | 0.0 | 4.8 | 0.00 | 0.00 | 0.00 | 100 | 1011.3 |
| 20260903210057 | 21 | 45 | 3.2 | 14.5 | 0.00 | 0.00 | 0.00 | 100 | 1011.3 |
| 20260903204557 | 21 | 63 | 3.2 | 12.9 | 0.00 | 0.00 | 0.00 | 100 | 1011.1 |
| 20260903203057 | 22 | 82 | 8.0 | 14.5 | 0.00 | 0.00 | 0.00 | 100 | 1011.1 |
| 20260903201558 | 22 | 77 | 6.4 | 16.1 | 0.00 | 0.00 | 0.00 | 100 | 1011.0 |
| 20260903200057 | 23 | 55 | 6.4 | 19.3 | 0.00 | 0.00 | 0.00 | 100 | 1011.0 |
| 20260903200002 | 23 | 117 | 8.0 | 19.3 | 0.00 | 0.00 | 0.00 | 100 | 1011.0 |
| 20260903194558 | 23 | 96 | 8.0 | 22.5 | 0.00 | 0.00 | 0.00 | 100 | 1010.9 |
| 20260903193058 | 23 | 70 | 12.9 | 22.5 | 0.00 | 0.00 | 0.00 | 100 | 1011.0 |
| 20260903191558 | 25 | 86 | 11.3 | 19.3 | 0.00 | 0.00 | 0.00 | 100 | 1011.0 |